Location: Champseau
(45.8333°N, 1.7667°E)
Time: 18:30:28
(UTC+00:00)

Cosmos 2219 Rocket - Pass Details

Date: 18 April 2021
Orbit: 826 x 848 km, 71.0° (Epoch: 11 May)

Event Time Altitude Azimuth Distance (km) Brightness Sun altitude
Rises 19:06:51 0° 337° (NNW) 3,421 6.1 -4.6°
Reaches altitude 10° 19:09:25 10° 343° (NNW) 2,482 5.2 -5.0°
Maximum altitude 19:14:54 46° 57° (ENE) 1,131 2.7 -5.9°
Drops below altitude 10° 19:20:20 10° 130° (SE) 2,466 4.0 -6.8°
Enters shadow 19:21:08 - 132° (SE) 2,756 4.3 -6.9°
